Regional Weather Roundup
Issued by NWS Nashville, TN

Home | Current Version | Previous Version | Text Only | Print | Product List | Glossary On
Versions: 1 2 3 4 5 6 7 8 9 10 11 12 13 14 15 16 17 18 19 20 21 22 23 24 25 26 27 28 29 30 31 32 33 34 35 36 37 38 39 40 41 42 43 44 45 46 47 48 49 50
000
ASUS44 KOHX 211810
RWROHX
MIDDLE TENNESSEE HOURLY WEATHER ROUNDUP
NATIONAL WEATHER SERVICE NASHVILLE TN
100 PM CDT SAT OCT 21 2017

NOTE: "FAIR" INDICATES FEW OR NO CLOUDS BELOW 12,000 FEET WITH
NO SIGNIFICANT WEATHER AND/OR OBSTRUCTIONS TO VISIBILITY.

* THESE REPORTS ARE NOT UNDER NWS QUALITY CONTROL AND MAY NOT
  REPORT WEATHER SUCH AS PRECIPITATION AND FOG.


TNZ005>011-023>034-057-059-062>066-078-080-211900
...NORTHERN MIDDLE TENNESSEE...

CITY           SKY/WX    TMP DP  RH WIND       PRES   REMARKS
CLARKSVILLE    CLOUDY    74  52  46 S10       30.18F
CROSSVILLE     SUNNY     71  44  37 S12G18    30.29F
GALLATIN       SUNNY     75  54  46 CALM      30.23F
DICKSON          N/A     74  54  49 S9        30.19F
NASHVILLE      PTSUNNY   76  55  48 S14       30.21F
PORTLAND       SUNNY     72  54  53 S12       30.20F
SMYRNA         CLOUDY    77  57  50 S9        30.21F
SPARTA         SUNNY     77  50  38 S8G15     30.24F
SPRINGFIELD    SUNNY     73  55  53 S8        30.18F
WEST NASHVILLE SUNNY     75  55  50 S10G17    30.18F
$$
TNZ056-058-060-061-075>077-079-093>097-211900
...SOUTHERN MIDDLE TENNESSEE...

CITY           SKY/WX    TMP DP  RH WIND       PRES   REMARKS
COLUMBIA       SUNNY     75  61  60 SE7G15    30.18F
FAYETTEVILLE   SUNNY     77  57  50 S12       30.22F
MURFREESBORO   CLOUDY    78  55  44 S12       30.21F
PULASKI        SUNNY     75  61  60 S12       30.20F
SHELBYVILLE    SUNNY     77  59  53 SE12      30.21F
TULLAHOMA      SUNNY     75  52  43 SE8       30.24F
WINCHESTER     SUNNY     75  55  50 SE12        N/A
$$


...KEY TO REMARKS...
VSB - VISIBILITY IN MILES
WCI - WIND CHILL INDEX
HX  - HEAT INDEX




USA.gov is the U.S. government's official web portal to all federal, state and local government web resources and services.